Tracking 25744 objects as of 25-Jun-2022
HD Live streaming from Space Station
objects crossing your sky now

RITE TARGET 2

Track RITE TARGET 2 now!
10-day predictions
RITE TARGET 2 is classified as:


NORAD ID: 28455
Int'l Code: 2002-056G
Perigee: 781.9 km
Apogee: 796.4 km
Inclination: 98.6 °
Period: 100.5 minutes
Semi major axis: 7160 km
RCS: 0.0143 m2 (small)
Launch date: December 14, 2002
Source: Japan (JPN)
Launch site: TANEGASHIMA SPACE CENTER (TNSTA)
aabbcc
Your satellite tracking list
Your tracking list is empty




NASA's NSSDC Master Catalog

Two Line Element Set (TLE):
1 28455U 02056G   22175.12813815  .00000363  00000-0  14868-3 0  9995
2 28455  98.5697 126.1464 0010121 182.0579 178.0565 14.32923020466443
Source of the keplerian elements: AFSPC